sat.trackr.live / text

‹ back to catalog

STARLINK-30865

NORAD 58226 · 2023-170W

PAYLOAD ACTIVE UNKNOWN

§ Identity

Operator
Country
US
Launch date
2023-11-03
Launch site
AFETR
Launch vehicle
Mass (kg)
RCS (m²)

Purposes: comms

External: N2YO · Heavens-Above · Gunter

§ Orbital elements

Epoch: 2026-09-20T10:12:37.145088Z

Period
94.27 min
Inclination
43.0014°
Eccentricity
0.0000951
Mean motion
15.27574824 rev/d
Perigee alt
482.4 km
Apogee alt
483.7 km
Semi-major
6,861.2 km
B*
2.0400e-6
RAAN
163.2531°
Arg perigee
277.0132°
Mean anomaly
83.0611°
Rev number
16,021

§ Raw data

STARLINK-308651 58226U 23170W   26263.42542992 -.00000206  00000+0  20400-5 0  99912 58226  43.0014 163.2531 0000951 277.0132  83.0611 15.27574824160219

JSON: /api/v1/satellites/58226 · /tle

For live sub-satellite position, see the globe view (requires WebGL).

§ Visibility from observer

Set your observer location to see the next 7 days of passes ≥ 10°. The values pass through the URL so the page stays shareable.

No JS? Fill the form by hand. The geolocation button needs JavaScript.